Regional Weather Roundup
Issued by NWS Charleston, SC

Current Version | Previous Version | Graphics & Text | Print | Product List | Glossary On
Versions: 1 2 3 4 5 6 7 8 9 10 11 12 13 14 15 16 17 18 19 20 21 22 23 24 25 26 27 28 29 30 31 32 33 34 35 36 37 38 39 40 41 42 43 44 45 46 47 48 49 50
000
ASUS42 KCHS 172125
RWRCHS

REGIONAL WEATHER ROUNDUP
NATIONAL WEATHER SERVICE CHARLESTON SC
500 PM EDT WED SEP 17 2014

NOTE: "FAIR" INDICATES FEW OR NO CLOUDS BELOW 12,000 FEET WITH NO
SIGNIFICANT WEATHER AND/OR OBSTRUCTIONS TO VISIBILITY.

NOT ALL STATIONS ARE QUALITY CONTROLLED BY THE NATIONAL
WEATHER SERVICE. USE DATA WITH CAUTION...ESPECIALLY
DEWPOINT OBSERVATIONS.

SCZ027-030-031-034>040-042>050-172200-
...SOUTH CAROLINA...

CITY           SKY/WX    TMP DP  RH WIND       PRES   REMARKS
N CHARLESTON   PTSUNNY   82  68  62 S10       29.86F
WATERFRONT PRK   N/A     81 N/A N/A E9          N/A
FORT JOHNSON   NOT AVBL
MOUNT PLEASANT DRIZZLE   79  70  73 SE5       29.87S
JOHNS ISLAND   PTCLDY    81  79  94 CALM      29.87S
PINOPOLIS        N/A     84  70  61 N5        29.81S
MONCKS CORNER    N/A     81  75  83 CALM      29.87S
SUMMERVILLE    TSTM      72  68  88 NE10G16   29.87S
BEAUFORT MCAS  PTSUNNY   81  74  79 N6        29.85F
BEAUFORT ARPT  FAIR      79  73  83 S3        29.85F
HILTON HEAD IS PTSUNNY   81  73  78 E6        29.88F
GEORGETOWN     NOT AVBL
WALTERBORO     MOCLDY    81  70  69 S5        29.87S
ORANGEBURG       N/A     69  66  90 S22G32    29.91R THUNDER
BARNWELL       DRIZZLE   75  72  88 CALM      29.90R
AIKEN          FAIR      79  72  78 N13       29.92S
MANNING        MOCLDY    81  72  74 N6        29.88S
KINGSTREE      NOT AVBL
COLUMBIA       CLOUDY    78  67  68 N7        29.89S
SUMTER         MOSUNNY   79  67  67 N8        29.88S
FLORENCE       PTSUNNY   80  67  64 NW7       29.89S
MYRTLE BEACH   PTSUNNY   84  66  54 S8        29.87S
N MYRTLE BEACH MOSUNNY   83  66  56 SW7       29.87R

$$

GAZ063-065-086>088-099>101-113>116-118-119-134-136>141-150-172200-
...GEORGIA...

CITY           SKY/WX    TMP DP  RH WIND       PRES   REMARKS
SAVANNAH ARPT  PTSUNNY   86  72  62 S10       29.85F HX  92
HUNTER AAF     MOSUNNY   84  74  72 SE10      29.84F HX  91
FORT STEWART   MOSUNNY   81  72  72 SE15      29.84R
STATESBORO     NOT AVBL
SYLVANIA       MOCLDY    83  77  83 CALM      29.85F HX  92
CLAXTON        FAIR      90  70  51 NW3       29.84S HX  95
THOMSON        MOSUNNY   86  74  66 NW3       29.91S HX  94
AUGUSTA-BUSH   CLOUDY    76  70  82 SE6       29.87S
AUGUSTA-DANIEL MOSUNNY   82  69  64 E10       29.88S
SWAINSBORO     FAIR      90  70  51 NW6       29.85F HX  95
VIDALIA        PTSUNNY   88  68  51 NW5       29.84F HX  91
ALMA           MOSUNNY   90  67  46 CALM      29.84F HX  93
WAYCROSS       SUNNY     93  71  49 NW6       29.83F HX 100
JESUP          CLOUDY    88  73  62 SE7       29.85S HX  96
BRUNSWICK      PTSUNNY   81  73  78 W12       29.89R THUNDER
SAINT SIMONS   MOSUNNY   82  72  71 SE7       29.86F

$$

SCZ027-028-034-036>038-045-046-048>050-GAZ119-141-172200-
...LAKE AND SUPPLEMENTAL COASTAL OBSERVATIONS...

STATION/POSITION TIME  TEMP    WIND        PRES    WAVE   SWELL
                       AIR SEA DIR/SP/G            HT/PER HT/PER/DIR
                 (UTC) (F)     (DEG/KT/KT) (MB)    (FT/S) (FT/S/D)
UPR LAKE MARION  NOT AVBL
WINYAH BAY       2100   80     120/  3     1011.0S
LAKE MURRAY      2000   73      40/  3/  6 1012.2F
ACE BASIN NERRS  2100   82     130/  3     1012.0S
FORT PULASKI     2100   82     110/  5/  7 1011.4R
SAPELO ISLAND    2100   83     130/  3     1012.0S

$$

ANZ835-935-AMZ111-154-330-350-352-354-374-450-454-472-172200-
...C-MAN AND BUOY OBSERVATIONS...

STATION/POSITION TIME  TEMP    WIND        PRES    WAVE   SWELL
                       AIR SEA DIR/SP/G            HT/PER HT/PER/DIR
                 (UTC) (F)     (DEG/KT/KT) (MB)    (FT/S) (FT/S/D)
FOLLY BEACH CMAN 2100   79     110/  7/  8 1011.9F
BUOY 41004       2100   80 83   10/  6/  8 1011.1S   3/14   3/14
BUOY 41008       2100   81 86  100/  4/  6 1011.3F   2/15   2/ 80/15
5E ST. MARYS GA  2100      85                N/A     3/15   3/120/15
FRYING PAN BUOY  NOT AVBL
BUOY 41025       2100   74     360/ 17/ 23 1011.2S   5/14   3/ 80/14
CAPE LOOKOUT NC  2100   75      40/ 12/ 13 1011.9R
BUOY 41002       2048   77 82  270/  6/ 10 1009.7S   6/13   7/100/13
BUOY 41010       2100   79 85  300/ 10/ 12 1010.7F   5/14   5/ 90/14
BUOY 41012       NOT AVBL
ST AUGUSTINE FL  2100   80      40/  3/  4 1012.1F
CAPERS NEARSHORE 2000   80      90/  8/ 10   N/A
FRIPP NEARSHORE  NOT AVBL


$$


USA.gov is the U.S. government's official web portal to all federal, state and local government web resources and services.